Regional Weather Roundup
Issued by NWS Sterling, VA

Home | Current Version | Previous Version | Graphics & Text | Print | Product List | Glossary On
Versions: 1 2 3 4 5 6 7 8 9 10 11 12 13 14 15 16 17 18 19 20 21 22 23 24 25 26 27 28 29 30 31 32 33 34 35 36 37 38 39 40 41 42 43 44 45 46 47 48 49 50
000
ASUS41 KLWX 161811
RWRLWX

REGIONAL WEATHER ROUNDUP
NATIONAL WEATHER SERVICE BALTIMORE MD/WASHINGTON DC
100 PM EST THU NOV 16 2017

Note: "FAIR" indicates few or no clouds below 12,000 feet
with no significant weather and/or obstructions to visibility.
 TC=TEMPERATURE CELSIUS

 * =Non NWS site. Station does not report precipitation (e.g. rain,
    snow, etc.), thunder, or fog.

DCZ001-MDZ009-015-VAZ040>042-051-053>054-161900-
WASHINGTON METRO

CITY           SKY/WX    TMP DP  RH WIND       PRES   REMARKS
WASHINGTON NAT PTSUNNY   62  39  42 W15G21    29.88F
DULLES         MOSUNNY   61  35  37 W17G28    29.87F
ANDREWS AFB    MOSUNNY   61  39  43 SW18      29.87F
FT BELVOIR     MOSUNNY   62  37  39 SW9       29.88F
QUANTICO       PTSUNNY   63  38  39 W12       29.90F
COLLEGE PARK*  PTSUNNY   60  37  42 W12       29.87F
LEESBURG*      SUNNY     61  36  39 NW22G30   29.88S
MANASSAS*      MOSUNNY   62  39  42 SW12      29.89F
GAITHERSBURG*  PTSUNNY   59  37  44 NW16G26   29.87F

$$

MDZ006>007-011-014-161900-
BALTIMORE METRO

CITY           SKY/WX    TMP DP  RH WIND       PRES   REMARKS
BWI AIRPORT    MOSUNNY   59  36  42 W15G26    29.86F
MD SCIENCE CTR   N/A     61  33  35 MISG      29.86F
MARTIN STATE   PTSUNNY   61  37  41 W18G32    29.88F
ANNAPOLIS      PTSUNNY   62  39  42 W9G18     29.87F
FORT MEADE*    PTSUNNY   59  36  41 W7G20     29.90S

$$

MDZ012-015-019>023-161900-
MARYLAND EASTERN SHORE

CITY           SKY/WX    TMP DP  RH WIND       PRES   REMARKS
OCEAN CITY     CLOUDY    60  45  57 W10       29.88F
SALISBURY      CLOUDY    58  41  53 W7        29.88F
CAMBRIDGE*       N/A     59  43  55 W6G12     29.89S
EASTON*        MOSUNNY   61  43  51 SW12      29.91F

$$

MDZ017>025-161900-
SOUTHERN MARYLAND

CITY           SKY/WX    TMP DP  RH WIND       PRES   REMARKS
PATUXENT RIVER CLOUDY    59  42  53 W12       29.89F
ST INIGOES     CLOUDY    57  43  59 W8        29.90S
LEONARDTOWN*   CLOUDY    59  41  51 SW8       29.91F

$$

MDZ003>005-161900-
NORTH CENTRAL MARYLAND

CITY           SKY/WX    TMP DP  RH WIND       PRES   REMARKS
FREDERICK*     PTSUNNY   61  30  31 NW18      29.90F
HAGERSTOWN APT PTSUNNY   54  35  48 NW25G33   29.88R
WESTMINSTER*   MOSUNNY   57  34  41 W18G26    29.85S

$$

MDZ501>502-161900-
WESTERN MARYLAND

CITY           SKY/WX    TMP DP  RH WIND       PRES   REMARKS
OAKLAND*       CLOUDY    34  30  86 W13G18    29.92R WCI  25
CUMBERLAND*    MOSUNNY   50  34  53 W15G22    30.00R

$$

VAZ025>031-161900-
SHENANDOAH VALLEY

CITY           SKY/WX    TMP DP  RH WIND       PRES   REMARKS
WINCHESTER*    MOSUNNY   55  32  41 W22G32    29.90R
FRONT ROYAL*   SUNNY     59  32  36 W12G23    29.88S
LURAY*         SUNNY     59  32  36 W10G26    29.90F
NEW MARKET*    SUNNY     58  27  30 W6        29.91S
STAUNTON*      SUNNY     59  30  33 W9G18     29.93S
WAYNESBORO*    SUNNY     58  31  35 W7        29.93R

$$

WVZ021-048>050-054>055-161900-
EASTERN WEST VIRGINIA PANHANDLE

CITY           SKY/WX    TMP DP  RH WIND       PRES   REMARKS
MARTINSBURG    SUNNY     58  32  37 W20G33    29.88R
PETERSBURG*    MOSUNNY   53  33  45 W18G36    29.94R

$$

VAZ036>039-050-161900-
CENTRAL FOOTHILLS

CITY           SKY/WX    TMP DP  RH WIND       PRES   REMARKS
CHARLOTTESVILL SUNNY     63  31  30 SW6G17    29.90S
CULPEPER*      MOSUNNY   63  35  36 W12G17    29.90F
ORANGE*        MOSUNNY   59  37  44 SW6       29.90F
GORDONSVILLE*  SUNNY     62  34  35 W6        29.90F
WARRENTON*     NOT AVBL

$$

VAZ055>057-161900-
NORTH AND CENTRAL PIEDMONT

CITY           SKY/WX    TMP DP  RH WIND       PRES   REMARKS
FREDERICKSBRG* MOSUNNY   60  40  47 SW12G20   29.90F
STAFFORD*      PTSUNNY   60  37  41 W7        29.94S

$$

NCZ024-NYZ072-PAZ021-071-VAZ022-071-161900-
OTHER REGIONAL OBSERVATIONS

CITY           SKY/WX    TMP DP  RH WIND       PRES   REMARKS
NEW YORK CITY  CLOUDY    55  41  59 W10G17    29.79F
PHILADELPHIA   PTSUNNY   58  37  45 W15       29.83F
PITTSBURGH     CLOUDY    39  31  72 W13G20    30.03R
ROANOKE        SUNNY     61  29  29 NW16G30   29.98F
RICHMOND       MOSUNNY   64  35  34 NW12G21   29.91F
RALEIGH        MOSUNNY   65  36  34 NW10      29.98F

$$

ANZ530>537-161900-
MARINE OBSERVATIONS

STATION/POSITION TIME  TEMP    WIND        PRES
                       AIR SEA DIR/SP/G
                 (UTC) (F)     (DEG/KT/KT) (MB)
THOMAS PT LIGHT  1800   59 54  260/ 14/ 16   N/A
BALT KEY BRIDGE  1742   58     270/ 18/ 21 1011.0F
COVE POINT       1742   57     270/ 10/ 13 1012.9F
LEWISETTA        1742   56 52   20/  5/  7 1012.3F
SOLOMONS ISLAND  1742   57 55  260/  9/ 12 1012.1F
PINEY POINT      1742          360/  8/  8   N/A

$$




USA.gov is the U.S. government's official web portal to all federal, state and local government web resources and services.